Location: Unspecified
(40.4667°N, 0.0000°E)
Time: 03:53:35
(UTC+00:00)

ISS - Pass Details

Date: 23 May 2019
Orbit: 407 x 419 km, 51.6° (Epoch: 26 June)

Event Time Altitude Azimuth Distance (km) Brightness Sun altitude
Rises 22:56:55 0° 310° (NW) 2,363 0.9 -27.3°
Reaches altitude 10° 22:59:42 10° 335° (NNW) 1,501 0.0 -27.4°
Maximum altitude 23:01:44 15° 13° (NNE) 1,236 -0.7 -27.5°
Enters shadow 23:02:40 14° 31° (NNE) 1,295 -0.8 -27.6°
